Time,TemperatureF,DewpointF,PressureIn,WindDirection,WindDirectionDegrees,WindSpeedMPH,WindSpeedGustMPH,Humidity,HourlyPrecipIn,Conditions,Clouds,dailyrainin,SoftwareType,DateUTC
2013-01-09 00:00:00,34.0,-99.9,-100.00,East,79,3.0,5.0,-999,-99.99,,,0.01,,2013-01-09 08:00:00,
2013-01-09 00:53:00,34.0,-99.9,-100.00,East,79,3.0,5.0,-999,-99.99,,,0.01,,2013-01-09 08:53:00,
2013-01-09 01:00:00,33.0,-99.9,-100.00,SE,125,3.0,6.0,-999,-99.99,,,0.01,,2013-01-09 09:00:00,
2013-01-09 01:54:00,33.0,-99.9,-100.00,SE,125,3.0,6.0,-999,-99.99,,,0.01,,2013-01-09 09:54:00,
2013-01-09 02:00:00,33.0,-99.9,-100.00,ESE,105,3.0,9.0,-999,-99.99,,,0.01,,2013-01-09 10:00:00,
2013-01-09 02:53:00,33.0,-99.9,-100.00,ESE,105,3.0,9.0,-999,-99.99,,,0.01,,2013-01-09 10:53:00,
2013-01-09 03:00:00,32.0,-99.9,-100.00,ENE,69,3.0,4.0,-999,-99.99,,,0.01,,2013-01-09 11:00:00,
2013-01-09 03:53:00,32.0,-99.9,-100.00,ENE,69,3.0,4.0,-999,-99.99,,,0.01,,2013-01-09 11:53:00,
2013-01-09 04:00:00,31.0,-99.9,-100.00,East,87,3.0,4.0,-999,-99.99,,,0.01,,2013-01-09 12:00:00,
2013-01-09 04:53:00,31.0,-99.9,-100.00,East,87,3.0,4.0,-999,-99.99,,,0.01,,2013-01-09 12:53:00,
2013-01-09 05:00:00,31.0,-99.9,-100.00,ENE,60,2.0,4.0,-999,-99.99,,,0.02,,2013-01-09 13:00:00,
2013-01-09 05:53:00,31.0,-99.9,-100.00,ENE,60,2.0,4.0,-999,-99.99,,,0.02,,2013-01-09 13:53:00,
2013-01-09 06:00:00,31.0,-99.9,-100.00,ESE,123,3.0,5.0,-999,-99.99,,,0.01,,2013-01-09 14:00:00,
2013-01-09 06:53:00,31.0,-99.9,-100.00,ESE,123,3.0,5.0,-999,-99.99,,,0.01,,2013-01-09 14:53:00,
2013-01-09 07:00:00,31.0,-99.9,-100.00,NW,319,3.0,6.0,-999,-99.99,,,0.01,,2013-01-09 15:00:00,
2013-01-09 07:53:00,31.0,-99.9,-100.00,NW,319,3.0,6.0,-999,-99.99,,,0.01,,2013-01-09 15:53:00,
2013-01-09 08:00:00,31.0,-99.9,-100.00,SSE,147,2.0,4.0,-999,-99.99,,,0.01,,2013-01-09 16:00:00,
2013-01-09 08:53:00,31.0,-99.9,-100.00,SSE,147,2.0,4.0,-999,-99.99,,,0.01,,2013-01-09 16:53:00,
2013-01-09 09:00:00,28.0,-99.9,-100.00,WSW,238,3.0,7.0,-999,-99.99,,,0.01,,2013-01-09 17:00:00,
2013-01-09 09:54:00,28.0,-99.9,-100.00,WSW,238,3.0,7.0,-999,-99.99,,,0.01,,2013-01-09 17:54:00,
2013-01-09 10:00:00,27.0,-99.9,-100.00,ESE,115,1.0,4.0,-999,-99.99,,,0.02,,2013-01-09 18:00:00,
2013-01-09 10:53:00,27.0,-99.9,-100.00,ESE,115,1.0,4.0,-999,-99.99,,,0.02,,2013-01-09 18:53:00,
2013-01-09 11:00:00,26.0,-99.9,-100.00,ESE,111,0.0,2.0,-999,-99.99,,,-99.99,,2013-01-09 19:00:00,
2013-01-09 11:53:00,26.0,-99.9,-100.00,ESE,111,0.0,2.0,-999,-99.99,,,-99.99,,2013-01-09 19:53:00,
2013-01-09 12:00:00,26.0,-99.9,-100.00,NW,324,1.0,6.0,-999,-99.99,,,0.02,,2013-01-09 20:00:00,
2013-01-09 12:53:00,26.0,-99.9,-100.00,NW,324,1.0,6.0,-999,-99.99,,,0.02,,2013-01-09 20:53:00,
2013-01-09 13:00:00,25.0,-99.9,-100.00,East,85,1.0,6.0,-999,-99.99,,,0.01,,2013-01-09 21:00:00,
2013-01-09 13:53:00,25.0,-99.9,-100.00,East,85,1.0,6.0,-999,-99.99,,,0.01,,2013-01-09 21:53:00,
2013-01-09 14:00:00,26.0,-99.9,-100.00,ESE,114,1.0,4.0,-999,-99.99,,,0.01,,2013-01-09 22:00:00,
2013-01-09 14:53:00,26.0,-99.9,-100.00,ESE,114,1.0,4.0,-999,-99.99,,,0.01,,2013-01-09 22:53:00,
2013-01-09 15:00:00,25.0,-99.9,-100.00,SE,141,1.0,3.0,-999,-99.99,,,0.01,,2013-01-09 23:00:00,
2013-01-09 15:53:00,25.0,-99.9,-100.00,SE,141,1.0,3.0,-999,-99.99,,,0.01,,2013-01-09 23:53:00,
2013-01-09 16:00:00,24.0,-99.9,-100.00,ESE,106,0.0,1.0,-999,-99.99,,,0.02,,2013-01-10 00:00:00,
2013-01-09 16:53:00,24.0,-99.9,-100.00,ESE,106,0.0,1.0,-999,-99.99,,,0.02,,2013-01-10 00:53:00,
2013-01-09 17:00:00,24.0,-99.9,-100.00,South,171,1.0,3.0,-999,-99.99,,,0.01,,2013-01-10 01:00:00,
2013-01-09 17:53:00,24.0,-99.9,-100.00,South,171,1.0,3.0,-999,-99.99,,,0.01,,2013-01-10 01:53:00,
2013-01-09 18:00:00,23.0,-99.9,-100.00,North,-999,-999.0,-999.0,-999,-99.99,,,0.01,,2013-01-10 02:00:00,
2013-01-09 19:00:00,22.0,-99.9,-100.00,ESE,120,1.0,8.0,-999,-99.99,,,0.02,,2013-01-10 03:00:00,
2013-01-09 19:53:00,22.0,-99.9,-100.00,ESE,120,1.0,8.0,-999,-99.99,,,0.02,,2013-01-10 03:53:00,
2013-01-09 20:00:00,22.0,-99.9,-100.00,ESE,119,0.0,1.0,-999,-99.99,,,0.01,,2013-01-10 04:00:00,
2013-01-09 20:53:00,22.0,-99.9,-100.00,ESE,119,0.0,1.0,-999,-99.99,,,0.01,,2013-01-10 04:53:00,
2013-01-09 21:00:00,21.0,-99.9,-100.00,SE,145,0.0,2.0,-999,-99.99,,,0.02,,2013-01-10 05:00:00,
2013-01-09 21:53:00,21.0,-99.9,-100.00,SE,145,0.0,2.0,-999,-99.99,,,0.02,,2013-01-10 05:53:00,
2013-01-09 22:00:00,21.0,-99.9,-100.00,ESE,122,0.0,0.0,-999,-99.99,,,0.02,,2013-01-10 06:00:00,
2013-01-09 22:53:00,21.0,-99.9,-100.00,ESE,122,0.0,0.0,-999,-99.99,,,0.02,,2013-01-10 06:53:00,
2013-01-09 23:00:00,21.0,-99.9,-100.00,East,83,0.0,1.0,-999,-99.99,,,0.01,,2013-01-10 07:00:00,
2013-01-09 23:52:00,21.0,-99.9,-100.00,East,83,0.0,1.0,-999,-99.99,,,0.01,,2013-01-10 07:52:00,